Find Starlink 30168

NORAD ID: 57513 Int'l Des: 2023-113 Owner: SPXS Country: US Constellation: starlink operational
LEOCIRCULAR

リアルタイム位置

3D地球を読み込み中...

Starlink 30168について

説明を読み込み中...

次回通過

Passes for default location (London). Set your location on the main map for personalized predictions.

高度履歴

Loading altitude history...

軌道要素

1 57513U 23113U 26129.99128209 -.00000924 00000-0 -24070-4 0 9995
2 57513 43.0052 29.5758 0001466 276.2771 83.7913 15.27574312152895
Epoch: May 9, 2026 • Age: 14 hours

現在のステータス

高度 495.0 km
速度 7.62 km/s
衛星直下点 -42.01°S, 150.19°W
打ち上げ日 Aug 7, 2023
運用期間 2.7 years
タイプ internet

技術仕様

分類 Payload
質量 730.00 kg
乾燥質量 700.00 kg
総質量 730.00 kg
長さ 0.30 m
直径 4.10 m
スパン 29.00 m
形状 Box + pan
製造者 SPXS
バスタイプ Starlink V2M
フェーズステータス In Orbit
所有者/国 SPXS/US

Most Searched